History for Miami, FL

Thursday, December 6, 2012 — View Current Conditions

Jump to Data:

Date:
Airport Code:
Recently Viewed Airport Codes: KMIA
Daily Summary
  Actual Average Record
Temperature
Mean Temperature 75°F 72°F  
Max Temperature 81°F 79°F 86°F (1983)
Min Temperature 68°F 65°F 44°F (1986)
Degree Days
Heating Degree Days 0 1  
Month to date heating degree days 0 2  
Since 1 July heating degree days 1 5  
Cooling Degree Days 10 7  
Month to date cooling degree days 56 47  
Year to date cooling degree days 4496 4419  
Growing Degree Days 24 (Base 50)    
Moisture
Dew Point 65°F    
Average Humidity 74    
Maximum Humidity 90    
Minimum Humidity 58    
Precipitation
Precipitation T in 0.07 in 0.76 in (1977)
Month to date precipitation 0.13 0.43  
Year to date precipitation 86.56 60.29  
Snow
Snow 0.00 in in in ()
Month to date snowfall 0.0  
Since 1 July snowfall 0.0  
Snow Depth 0.00 in    
Sea Level Pressure
Sea Level Pressure 29.97 in    
Wind
Wind Speed 3 mph (ENE)    
Max Wind Speed 10 mph    
Max Gust Speed 15 mph    
Visibility 10 miles    
Events      
T = Trace of Precipitation, MM = Missing Value Source: NWS Daily Summary

Show full METARS

(help) - Comma Delimited File

Hourly Observations

Time(EST) Temperature Dew Point Humidity Sea Level Pressure Visibility Wind Direction Wind Speed Gust Speed Precipitation Events Conditions
12:34 AM 71.6°F 64.4°F 78% 30.02 in 10.0 miles North 3.5 mph - N/A   Overcast
12:53 AM 72.0°F 64.9°F 78% 30.02 in 10.0 miles Calm Calm - N/A   Overcast
1:53 AM 70.0°F 64.0°F 81% 30.00 in 10.0 miles Calm Calm - N/A   Mostly Cloudy
2:53 AM 69.1°F 64.9°F 87% 29.99 in 10.0 miles Calm Calm - N/A   Mostly Cloudy
3:53 AM 69.1°F 64.9°F 87% 29.98 in 10.0 miles Variable 3.5 mph - N/A   Scattered Clouds
4:14 AM 69.8°F 66.2°F 88% 29.98 in 10.0 miles North 3.5 mph - N/A   Overcast
4:26 AM 69.8°F 66.2°F 88% 29.97 in 10.0 miles North 3.5 mph - N/A   Overcast
4:53 AM 70.0°F 66.0°F 87% 29.98 in 10.0 miles NNW 3.5 mph - N/A   Overcast
5:53 AM 70.0°F 66.9°F 90% 29.98 in 10.0 miles Calm Calm - N/A   Mostly Cloudy
6:53 AM 70.0°F 66.0°F 87% 29.99 in 10.0 miles Variable 3.5 mph - N/A   Mostly Cloudy
7:53 AM 71.1°F 66.9°F 87% 30.00 in 10.0 miles Calm Calm - N/A   Mostly Cloudy
8:53 AM 72.0°F 66.0°F 81% 30.01 in 10.0 miles Calm Calm - N/A   Mostly Cloudy
9:53 AM 73.9°F 66.9°F 79% 30.01 in 10.0 miles Calm Calm - N/A   Mostly Cloudy
10:53 AM 75.0°F 66.9°F 76% 30.01 in 10.0 miles Calm Calm - N/A   Mostly Cloudy
11:53 AM 77.0°F 64.0°F 64% 29.98 in 10.0 miles Variable 3.5 mph - N/A   Mostly Cloudy
12:53 PM 80.1°F 64.0°F 58% 29.95 in 10.0 miles Variable 6.9 mph - N/A   Mostly Cloudy
1:53 PM 77.0°F 64.9°F 66% 29.93 in 10.0 miles East 6.9 mph - 0.00 in   Mostly Cloudy
2:53 PM 77.0°F 64.0°F 64% 29.92 in 10.0 miles ESE 6.9 mph - N/A   Mostly Cloudy
3:53 PM 78.1°F 63.0°F 60% 29.92 in 10.0 miles ESE 8.1 mph - 0.00 in   Mostly Cloudy
4:53 PM 75.9°F 63.0°F 64% 29.93 in 10.0 miles ESE 8.1 mph - N/A   Mostly Cloudy
5:53 PM 73.9°F 63.0°F 68% 29.94 in 10.0 miles ESE 6.9 mph - N/A   Mostly Cloudy
6:53 PM 73.9°F 63.0°F 68% 29.95 in 10.0 miles ESE 4.6 mph - N/A   Mostly Cloudy
7:53 PM 73.4°F 64.4°F 73% 29.96 in 10.0 miles East 3.5 mph - N/A   Scattered Clouds
8:53 PM 73.9°F 63.0°F 68% 29.97 in 10.0 miles East 3.5 mph - N/A   Partly Cloudy
9:53 PM 72.0°F 64.0°F 76% 29.96 in 10.0 miles Calm Calm - N/A   Partly Cloudy
10:53 PM 69.1°F 63.0°F 81% 29.96 in 10.0 miles Calm Calm - N/A   Partly Cloudy
11:53 PM 71.1°F 64.0°F 78% 29.95 in 10.0 miles North 3.5 mph - N/A   Partly Cloudy